NOZ330 ENVA-ENGM

Flight info

Callsign NOZ330
Flight time 0h 44m
Altitude 27000
Route UTUNA DCT TUTBI DCT BELGU
Aircraft B738/M-SDE2E3FGHIRWXY/LB1

Departure

Time 2026-04-30 06:25
Airport Trondheim Airport, Værnes (ENVA)

Arrival

Time 2026-04-30 07:10
Airport Oslo-Gardermoen International Airport (ENGM)
Time Latitude Longitude Altitude Speed Heading
2026-04-30 05:59 63.45425 10.92276 38 ft 0 kts 270°
2026-04-30 06:19 63.45425 10.92287 38 ft 2 kts 268°
2026-04-30 06:19 63.45425 10.92324 36 ft 2 kts 272°
2026-04-30 06:19 63.45425 10.92360 36 ft 2 kts 270°
2026-04-30 06:19 63.45425 10.92397 37 ft 2 kts 270°
2026-04-30 06:20 63.45425 10.92409 37 ft 0 kts 270°
2026-04-30 06:22 63.45429 10.92403 38 ft 0 kts 322°
2026-04-30 06:22 63.45452 10.92409 41 ft 7 kts 13°
2026-04-30 06:22 63.45527 10.92421 41 ft 12 kts
2026-04-30 06:22 63.45592 10.92540 41 ft 15 kts 81°
2026-04-30 06:23 63.45595 10.92782 45 ft 16 kts 90°
2026-04-30 06:23 63.45594 10.93081 49 ft 21 kts 90°
2026-04-30 06:23 63.45593 10.93424 54 ft 23 kts 90°
2026-04-30 06:23 63.45592 10.93696 55 ft 14 kts 90°
2026-04-30 06:24 63.45635 10.93917 55 ft 18 kts 47°
2026-04-30 06:24 63.45716 10.94081 58 ft 11 kts 15°
2026-04-30 06:24 63.45755 10.94008 58 ft 7 kts 282°
2026-04-30 06:24 63.45756 10.93865 57 ft 15 kts 270°
2026-04-30 06:25 63.45758 10.93135 49 ft 82 kts 270°
2026-04-30 06:25 63.45761 10.91373 35 ft 141 kts 270°
2026-04-30 06:25 63.45761 10.88966 368 ft 161 kts 270°
2026-04-30 06:25 63.45797 10.86390 997 ft 167 kts 272°
2026-04-30 06:26 63.45839 10.83805 1743 ft 168 kts 271°
2026-04-30 06:26 63.45858 10.82050 2253 ft 168 kts 271°
2026-04-30 06:26 63.45725 10.78568 3128 ft 182 kts 246°
2026-04-30 06:26 63.45135 10.77038 3248 ft 205 kts 217°
2026-04-30 06:27 63.43665 10.76240 3468 ft 243 kts 180°
2026-04-30 06:27 63.41907 10.76452 3873 ft 257 kts 188°
2026-04-30 06:27 63.40116 10.76123 4591 ft 260 kts 191°
2026-04-30 06:27 63.38295 10.75834 5279 ft 267 kts 190°
2026-04-30 06:28 63.36432 10.75591 5961 ft 272 kts 190°
2026-04-30 06:28 63.34508 10.75363 6604 ft 278 kts 189°
2026-04-30 06:28 63.32573 10.75148 7196 ft 285 kts 188°
2026-04-30 06:28 63.30565 10.74935 7894 ft 289 kts 188°
2026-04-30 06:29 63.28567 10.74733 8643 ft 291 kts 188°
2026-04-30 06:29 63.26520 10.74529 9357 ft 295 kts 188°
2026-04-30 06:29 63.24462 10.74325 10073 ft 299 kts 188°
2026-04-30 06:29 63.22378 10.74120 10686 ft 305 kts 188°
2026-04-30 06:30 63.20176 10.73894 10885 ft 328 kts 187°
2026-04-30 06:30 63.17837 10.73654 11063 ft 348 kts 187°
2026-04-30 06:30 63.15364 10.73411 11490 ft 359 kts 187°
2026-04-30 06:30 63.12865 10.73175 12088 ft 364 kts 187°
2026-04-30 06:31 63.10318 10.72938 12788 ft 366 kts 187°
2026-04-30 06:31 63.07745 10.72697 13495 ft 370 kts 188°
2026-04-30 06:31 63.05176 10.72453 14172 ft 375 kts 188°
2026-04-30 06:31 63.02547 10.72202 14788 ft 379 kts 188°
2026-04-30 06:32 62.99916 10.71950 15465 ft 382 kts 188°
2026-04-30 06:32 62.97230 10.71694 16140 ft 385 kts 188°
2026-04-30 06:32 62.94568 10.71441 16774 ft 389 kts 188°
2026-04-30 06:32 62.91821 10.71179 17412 ft 394 kts 188°
2026-04-30 06:33 62.89088 10.70920 18045 ft 398 kts 188°
2026-04-30 06:33 62.86287 10.70653 18681 ft 402 kts 188°
2026-04-30 06:33 62.83499 10.70389 19257 ft 406 kts 188°
2026-04-30 06:33 62.80692 10.70155 19850 ft 408 kts 187°
2026-04-30 06:34 62.77838 10.69955 20448 ft 410 kts 187°
2026-04-30 06:34 62.74951 10.69766 21023 ft 413 kts 187°
2026-04-30 06:34 62.72079 10.69581 21551 ft 416 kts 186°
2026-04-30 06:34 62.69200 10.69392 22091 ft 418 kts 186°
2026-04-30 06:35 62.66263 10.69198 22633 ft 421 kts 186°
2026-04-30 06:35 62.63316 10.69000 23139 ft 424 kts 186°
2026-04-30 06:35 62.60376 10.68803 23647 ft 427 kts 186°
2026-04-30 06:35 62.57378 10.68601 24137 ft 430 kts 186°
2026-04-30 06:36 62.54419 10.68401 24559 ft 432 kts 186°
2026-04-30 06:36 62.51402 10.68200 25105 ft 431 kts 186°
2026-04-30 06:36 62.48412 10.68002 25725 ft 427 kts 186°
2026-04-30 06:36 62.45476 10.67808 26325 ft 425 kts 186°
2026-04-30 06:37 62.42515 10.67611 26869 ft 424 kts 186°
2026-04-30 06:37 62.39561 10.67413 27356 ft 424 kts 186°
2026-04-30 06:37 62.36631 10.67215 27404 ft 425 kts 186°
2026-04-30 06:37 62.33672 10.67018 27429 ft 422 kts 186°
2026-04-30 06:38 62.30758 10.66825 27425 ft 423 kts 186°
2026-04-30 06:38 62.27801 10.66627 27439 ft 424 kts 186°
2026-04-30 06:38 62.24886 10.66433 27438 ft 424 kts 186°
2026-04-30 06:38 62.21925 10.66237 27440 ft 425 kts 186°
2026-04-30 06:39 62.18942 10.66040 27441 ft 425 kts 186°
2026-04-30 06:39 62.16006 10.65847 27439 ft 426 kts 186°
2026-04-30 06:39 62.13021 10.65651 27425 ft 425 kts 186°
2026-04-30 06:39 62.10096 10.65460 27423 ft 424 kts 185°
2026-04-30 06:40 62.07162 10.65268 27418 ft 424 kts 185°
2026-04-30 06:40 62.04189 10.65074 27433 ft 424 kts 185°
2026-04-30 06:40 62.01267 10.64884 27417 ft 417 kts 185°
2026-04-30 06:40 61.98430 10.64705 27316 ft 406 kts 186°
2026-04-30 06:41 61.95594 10.64521 27031 ft 400 kts 186°
2026-04-30 06:41 61.92850 10.64340 26656 ft 398 kts 186°
2026-04-30 06:41 61.90112 10.64158 26307 ft 394 kts 186°
2026-04-30 06:41 61.87377 10.63976 25929 ft 391 kts 186°
2026-04-30 06:42 61.84661 10.63795 25564 ft 388 kts 186°
2026-04-30 06:42 61.81993 10.63619 25198 ft 386 kts 186°
2026-04-30 06:42 61.79313 10.63441 24815 ft 384 kts 186°
2026-04-30 06:42 61.76644 10.63265 24464 ft 382 kts 186°
2026-04-30 06:43 61.74013 10.63092 24103 ft 380 kts 186°
2026-04-30 06:43 61.71359 10.62918 23688 ft 379 kts 186°
2026-04-30 06:43 61.68743 10.62748 23285 ft 377 kts 186°
2026-04-30 06:43 61.66146 10.62579 22910 ft 374 kts 186°
2026-04-30 06:44 61.63547 10.62410 22543 ft 372 kts 186°
2026-04-30 06:44 61.60961 10.62243 22185 ft 369 kts 186°
2026-04-30 06:44 61.58395 10.62077 21826 ft 367 kts 186°
2026-04-30 06:44 61.55876 10.61914 21472 ft 364 kts 186°
2026-04-30 06:45 61.53320 10.61748 20933 ft 367 kts 186°
2026-04-30 06:45 61.50778 10.61580 20451 ft 370 kts 186°
2026-04-30 06:45 61.48195 10.61413 20022 ft 370 kts 185°
2026-04-30 06:45 61.45636 10.61248 19603 ft 371 kts 185°
2026-04-30 06:46 61.43059 10.61084 19274 ft 368 kts 185°
2026-04-30 06:46 61.40534 10.60924 18965 ft 365 kts 185°
2026-04-30 06:46 61.37988 10.60762 18609 ft 363 kts 185°
2026-04-30 06:46 61.35466 10.60601 18224 ft 362 kts 185°
2026-04-30 06:47 61.32984 10.60444 17885 ft 359 kts 185°
2026-04-30 06:47 61.30498 10.60287 17749 ft 350 kts 185°
2026-04-30 06:47 61.28097 10.60136 17671 ft 339 kts 185°
2026-04-30 06:47 61.25782 10.59991 17586 ft 329 kts 185°
2026-04-30 06:48 61.23546 10.59850 17514 ft 320 kts 185°
2026-04-30 06:48 61.21341 10.59708 17415 ft 311 kts 187°
2026-04-30 06:48 61.19289 10.58773 17187 ft 295 kts 212°
2026-04-30 06:48 61.17709 10.56332 16884 ft 282 kts 236°
2026-04-30 06:49 61.16703 10.52963 16658 ft 271 kts 254°
2026-04-30 06:49 61.16199 10.49202 16643 ft 269 kts 269°
2026-04-30 06:49 61.16323 10.45468 16592 ft 259 kts 291°
2026-04-30 06:49 61.17178 10.42249 16620 ft 253 kts 310°
2026-04-30 06:50 61.18424 10.39723 16607 ft 254 kts 322°
2026-04-30 06:50 61.19955 10.37844 16605 ft 256 kts 339°
2026-04-30 06:50 61.21689 10.37037 16623 ft 259 kts 347°
2026-04-30 06:50 61.23491 10.36442 16615 ft 261 kts 348°
2026-04-30 06:51 61.25278 10.35861 16622 ft 262 kts 348°
2026-04-30 06:51 61.27068 10.35276 16621 ft 264 kts 348°
2026-04-30 06:51 61.28898 10.34773 16600 ft 266 kts 357°
2026-04-30 06:51 61.30709 10.35527 16638 ft 270 kts 18°
2026-04-30 06:52 61.32351 10.37563 16608 ft 278 kts 36°
2026-04-30 06:52 61.33612 10.40685 16614 ft 286 kts 56°
2026-04-30 06:52 61.34277 10.44596 16614 ft 295 kts 78°
2026-04-30 06:52 61.34167 10.48926 16607 ft 302 kts 104°
2026-04-30 06:53 61.33242 10.52795 16606 ft 305 kts 129°
2026-04-30 06:53 61.31629 10.55651 16618 ft 305 kts 153°
2026-04-30 06:53 61.29660 10.57099 16617 ft 302 kts 173°
2026-04-30 06:53 61.27590 10.57775 16618 ft 304 kts 175°
2026-04-30 06:54 61.25485 10.58402 16618 ft 306 kts 174°
2026-04-30 06:54 61.23356 10.59056 16621 ft 309 kts 174°
2026-04-30 06:54 61.21215 10.59735 16605 ft 311 kts 173°
2026-04-30 06:54 61.19110 10.60777 16285 ft 317 kts 165°
2026-04-30 06:55 61.17028 10.62172 15998 ft 316 kts 163°
2026-04-30 06:55 61.14946 10.63650 15703 ft 315 kts 163°
2026-04-30 06:55 61.12870 10.65122 15406 ft 314 kts 163°
2026-04-30 06:55 61.10813 10.66557 15121 ft 313 kts 163°
2026-04-30 06:56 61.08741 10.67980 14836 ft 311 kts 163°
2026-04-30 06:56 61.06711 10.69355 14546 ft 310 kts 163°
2026-04-30 06:56 61.04856 10.70601 14276 ft 305 kts 164°
2026-04-30 06:56 61.02873 10.71925 13961 ft 299 kts 164°
2026-04-30 06:57 61.00913 10.73229 13664 ft 292 kts 164°
2026-04-30 06:57 60.98994 10.74499 13388 ft 286 kts 164°
2026-04-30 06:57 60.97124 10.75734 13126 ft 283 kts 164°
2026-04-30 06:57 60.95240 10.76974 12861 ft 282 kts 165°
2026-04-30 06:58 60.93367 10.78203 12643 ft 285 kts 165°
2026-04-30 06:58 60.91477 10.79442 12378 ft 289 kts 165°
2026-04-30 06:58 60.89554 10.80702 12092 ft 289 kts 164°
2026-04-30 06:58 60.87662 10.81941 11822 ft 287 kts 164°
2026-04-30 06:59 60.85753 10.83189 11564 ft 286 kts 164°
2026-04-30 06:59 60.83926 10.84382 11312 ft 285 kts 164°
2026-04-30 06:59 60.82028 10.85622 11042 ft 284 kts 165°
2026-04-30 06:59 60.80144 10.86849 10770 ft 283 kts 165°
2026-04-30 07:00 60.78291 10.88054 10524 ft 282 kts 165°
2026-04-30 07:00 60.76425 10.89267 10251 ft 279 kts 165°
2026-04-30 07:00 60.74579 10.90465 9972 ft 277 kts 165°
2026-04-30 07:00 60.72748 10.91652 9718 ft 281 kts 165°
2026-04-30 07:01 60.70861 10.92871 9469 ft 285 kts 165°
2026-04-30 07:01 60.68944 10.94110 9192 ft 289 kts 165°
2026-04-30 07:01 60.67048 10.95335 8910 ft 289 kts 164°
2026-04-30 07:01 60.65142 10.96565 8625 ft 288 kts 164°
2026-04-30 07:02 60.63232 10.97796 8370 ft 286 kts 164°
2026-04-30 07:02 60.61333 10.99017 8107 ft 285 kts 164°
2026-04-30 07:02 60.59466 11.00214 7744 ft 287 kts 164°
2026-04-30 07:02 60.57518 11.01466 7248 ft 292 kts 163°
2026-04-30 07:03 60.55602 11.02697 6909 ft 285 kts 163°
2026-04-30 07:03 60.53762 11.03878 6633 ft 276 kts 163°
2026-04-30 07:03 60.51935 11.05047 6374 ft 272 kts 164°
2026-04-30 07:03 60.50147 11.06188 6116 ft 271 kts 163°
2026-04-30 07:04 60.48347 11.07335 5876 ft 269 kts 163°
2026-04-30 07:04 60.46642 11.08719 5588 ft 266 kts 145°
2026-04-30 07:04 60.45352 11.11317 5370 ft 256 kts 130°
2026-04-30 07:04 60.44223 11.14049 5127 ft 249 kts 130°
2026-04-30 07:05 60.42020 11.19305 4680 ft 243 kts 130°
2026-04-30 07:05 60.40911 11.21848 4448 ft 242 kts 138°
2026-04-30 07:05 60.39425 11.23287 4207 ft 236 kts 178°
2026-04-30 07:06 60.37880 11.22684 4061 ft 225 kts 201°
2026-04-30 07:06 60.36401 11.21679 3823 ft 220 kts 198°
2026-04-30 07:06 60.34953 11.20821 3683 ft 211 kts 197°
2026-04-30 07:06 60.33572 11.20025 3457 ft 208 kts 197°
2026-04-30 07:07 60.32187 11.19226 3204 ft 205 kts 197°
2026-04-30 07:07 60.30828 11.18438 2914 ft 197 kts 197°
2026-04-30 07:07 60.29563 11.17711 2654 ft 183 kts 197°
2026-04-30 07:07 60.28376 11.17024 2448 ft 169 kts 197°
2026-04-30 07:08 60.27258 11.16378 2181 ft 168 kts 197°
2026-04-30 07:08 60.26141 11.15731 1946 ft 164 kts 196°
2026-04-30 07:08 60.25059 11.15106 1717 ft 160 kts 196°
2026-04-30 07:08 60.24011 11.14499 1500 ft 156 kts 196°
2026-04-30 07:09 60.22970 11.13902 1282 ft 155 kts 196°
2026-04-30 07:09 60.21929 11.13294 1105 ft 155 kts 196°
2026-04-30 07:09 60.20894 11.12696 888 ft 156 kts 196°
2026-04-30 07:09 60.19870 11.12102 699 ft 151 kts 196°
2026-04-30 07:10 60.18972 11.11586 685 ft 106 kts 196°
2026-04-30 07:10 60.18468 11.11295 681 ft 45 kts 196°
2026-04-30 07:10 60.18238 11.11161 683 ft 35 kts 196°
2026-04-30 07:10 60.18070 11.10984 681 ft 18 kts 225°
2026-04-30 07:11 60.18038 11.10830 678 ft 10 kts 272°
2026-04-30 07:11 60.18043 11.10782 680 ft 0 kts 287°
2026-04-30 07:13 60.18048 11.10753 679 ft 5 kts 289°
2026-04-30 07:13 60.18092 11.10691 679 ft 10 kts 359°
2026-04-30 07:13 60.18177 11.10734 679 ft 15 kts 16°
2026-04-30 07:13 60.18295 11.10802 680 ft 20 kts 15°
2026-04-30 07:14 60.18441 11.10887 682 ft 24 kts 16°
2026-04-30 07:14 60.18601 11.10979 681 ft 23 kts 16°
2026-04-30 07:14 60.18753 11.11068 682 ft 23 kts 15°
2026-04-30 07:14 60.18902 11.11154 684 ft 22 kts 16°
2026-04-30 07:15 60.19046 11.11235 685 ft 21 kts 15°
2026-04-30 07:15 60.19187 11.11318 684 ft 21 kts 15°
2026-04-30 07:15 60.19322 11.11396 683 ft 17 kts 17°
2026-04-30 07:15 60.19404 11.11330 683 ft 14 kts 293°
2026-04-30 07:16 60.19431 11.11151 683 ft 14 kts 285°
2026-04-30 07:16 60.19459 11.10955 682 ft 16 kts 286°
2026-04-30 07:16 60.19488 11.10753 681 ft 8 kts 285°
2026-04-30 07:16 60.19463 11.10692 681 ft 6 kts 200°
2026-04-30 07:17 60.19424 11.10668 681 ft 6 kts 196°
2026-04-30 07:17 60.19393 11.10649 681 ft 0 kts 196°